Location: Okie-Tex Star Party
(36.8978°N, 102.9520°W)
Time: 19:29:47
(UTC-05:00)

Amateur Radio Satellites - All Passes

Search period start: 20 October 2014 18:59
Search period end: 21 October 2014 18:59
Location: Okie-Tex Star Party, 36.8978°N, 102.9520°W

Satellite Date Start Highest point End Downlink Frequencies (MHz)
Time Altitude Azimuth
SO-67 20 Oct 19:36:07 19:38:55 24° 72° (ENE) 19:41:43 435.3500 MHz FM
Hamsat 20 Oct 19:52:10 19:55:23 21° 265° (W) 19:58:36 145.90 MHz
STRAND 1 20 Oct 20:14:06 20:18:56 40° 99° (E) 20:23:44 ?
Saudisat 1A 20 Oct 20:16:01 20:18:35 15° 251° (WSW) 20:21:09 436.775 MHz
OPAL 20 Oct 20:16:51 20:20:38 22° 296° (WNW) 20:24:24 ?
HO-68 20 Oct 20:25:09 20:29:35 18° 57° (ENE) 20:34:01 435.675 MHz FM
AO-40 20 Oct 20:30:00 23:26:56 40° 196° (SSW) 04:52:55 Beacon 2401.320
SO-67 20 Oct 21:09:47 21:11:52 15° 266° (W) 21:13:58 435.3500 MHz FM
Oscar 11 20 Oct 21:51:09 21:54:01 18° 67° (ENE) 21:56:53 145.825 FM, Beacon 2401.500 USB
ISS 20 Oct 21:52:52 21:56:03 40° 36° (NE) 21:59:13 145.800 FM
STRAND 1 20 Oct 21:53:54 21:57:50 22° 294° (WNW) 22:01:45 ?
HO-68 20 Oct 22:09:13 22:16:22 84° 255° (WSW) 22:23:36 435.675 MHz FM
KITSAT 1 20 Oct 22:18:12 22:25:14 32° 48° (NE) 22:32:13 435.175 FM
ZACube-1 20 Oct 22:27:02 22:30:20 20° 68° (ENE) 22:33:37 437.345 MHz
UKube-1 20 Oct 22:39:46 22:44:06 76° 75° (ENE) 22:48:28 145.840 MHz, 145.915 MHz
RS-15 20 Oct 22:58:16 23:08:06 39° 107° (ESE) 23:17:46 29.354 - 29.394 USB, Beacon 29.352 USB
FUNcube-1 20 Oct 23:11:27 23:15:59 59° 75° (ENE) 23:20:29 145.950 - 145.970 MHz USB
SO-50 20 Oct 23:12:56 23:16:52 24° 49° (NE) 23:20:48 436.795 FM
Oscar 11 20 Oct 23:25:54 23:29:54 36° 262° (W) 23:33:55 145.825 FM, Beacon 2401.500 USB
ISS 20 Oct 23:30:11 23:32:31 18° 231° (SW) 23:34:51 145.800 FM
ZACube-1 21 Oct 00:02:11 00:06:27 37° 262° (W) 00:10:42 437.345 MHz
HO-68 21 Oct 00:02:29 00:04:58 12° 271° (W) 00:07:27 435.675 MHz FM
KITSAT 1 21 Oct 00:13:09 00:21:02 59° 248° (WSW) 00:28:53 435.175 FM
MaSat-1 21 Oct 00:42:42 00:45:21 16° 105° (ESE) 00:47:53 437.345 MHz
FUNcube-1 21 Oct 00:51:04 00:52:40 12° 269° (W) 00:54:16 145.950 - 145.970 MHz USB
SO-50 21 Oct 00:53:00 00:57:33 41° 246° (WSW) 01:02:07 436.795 FM
UOSAT-12 21 Oct 01:00:52 01:04:45 25° 50° (NE) 01:08:35 437.025 FM, 437.400 FM
RS-15 21 Oct 01:09:15 01:19:58 56° 307° (NW) 01:30:41 29.354 - 29.394 USB, Beacon 29.352 USB
MaSat-1 21 Oct 02:16:50 02:20:53 39° 297° (WNW) 02:24:38 437.345 MHz
Oscar 19 21 Oct 02:25:27 02:29:03 19° 94° (E) 02:32:37 437.125 CW, 437.150 USB
UOSAT-12 21 Oct 02:40:41 02:44:58 36° 246° (WSW) 02:49:10 437.025 FM, 437.400 FM
Oscar 16 21 Oct 03:09:20 03:14:22 55° 101° (E) 03:19:22 437.025 USB, Beacon 2401.1428
JAS-1B 21 Oct 03:20:15 03:26:44 57° 102° (ESE) 03:34:27 435.800 - 435.900 CW/SSB
Uribyol 2 21 Oct 03:21:33 03:26:03 29° 96° (E) 03:30:30 436.500 FM
Gurwin Techsat 1B 21 Oct 03:22:33 03:25:12 14° 91° (E) 03:27:49 435.225 FM
ITAMSAT 1 21 Oct 03:26:23 03:30:58 30° 97° (E) 03:35:31 435.822 SSB
RS-15 21 Oct 03:28:32 03:35:33 18° 337° (NNW) 03:42:38 29.354 - 29.394 USB, Beacon 29.352 USB
TMSAT-1 21 Oct 03:36:38 03:39:15 14° 91° (E) 03:41:52 436.925 FM
AO-Echo 21 Oct 03:38:46 03:43:58 55° 100° (E) 03:49:10 ?
Oscar 19 21 Oct 04:03:43 04:08:33 44° 289° (WNW) 04:13:22 437.125 CW, 437.150 USB
AO-27 21 Oct 04:10:22 04:15:38 85° 104° (ESE) 04:20:51 436.795 MHz FM
AO-7 21 Oct 04:38:06 04:42:46 16° 92° (E) 04:47:24 29.400 - 29.500 MHz
Sapphire 21 Oct 04:42:34 04:46:11 19° 105° (ESE) 04:49:49 437.095 MHz 1200 baud AX-25 AFSK
Oscar 16 21 Oct 04:50:06 04:53:14 17° 296° (WNW) 04:56:22 437.025 USB, Beacon 2401.1428
Gurwin Techsat 1B 21 Oct 05:00:18 05:05:33 64° 286° (WNW) 05:10:47 435.225 FM
Uribyol 2 21 Oct 05:00:55 05:05:26 30° 292° (WNW) 05:09:55 436.500 FM
PCSat 21 Oct 05:04:14 05:09:00 33° 109° (ESE) 05:13:48 145.825 MHz
ITAMSAT 1 21 Oct 05:05:53 05:10:21 29° 292° (WNW) 05:14:48 435.822 SSB
JAS-1B 21 Oct 05:12:05 05:17:05 24° 294° (WNW) 05:22:42 435.800 - 435.900 CW/SSB
TMSAT-1 21 Oct 05:14:19 05:19:34 64° 286° (WNW) 05:24:48 436.925 FM
AO-Echo 21 Oct 05:18:49 05:22:15 18° 295° (WNW) 05:25:41 ?
Uosat F 21 Oct 05:21:01 05:24:40 20° 94° (E) 05:28:17 435.120 FM
RS-15 21 Oct 05:48:25 05:54:26 16° 15° (NNE) 06:00:32 29.354 - 29.394 USB, Beacon 29.352 USB
OPAL 21 Oct 05:49:50 05:54:52 55° 71° (ENE) 05:59:53 ?
AO-27 21 Oct 05:52:52 05:54:22 11° 299° (WNW) 05:55:52 436.795 MHz FM
JAS-2 21 Oct 06:08:41 06:14:32 23° 92° (E) 06:20:23 435.800 - 435.900 CW/SSB, 435.910 FM
Sapphire 21 Oct 06:23:52 06:29:08 53° 301° (WNW) 06:34:27 437.095 MHz 1200 baud AX-25 AFSK
AO-7 21 Oct 06:28:04 06:36:26 90° 288° (WNW) 06:44:47 29.400 - 29.500 MHz
PCSat 21 Oct 06:47:34 06:52:21 32° 305° (NW) 06:57:11 145.825 MHz
Uosat F 21 Oct 06:58:50 07:03:35 42° 289° (WNW) 07:08:17 435.120 FM
STRAND 1 21 Oct 07:27:45 07:32:37 46° 71° (ENE) 07:37:30 ?
OPAL 21 Oct 07:30:57 07:34:01 16° 265° (W) 07:37:05 ?
Hamsat 21 Oct 07:38:46 07:42:58 79° 102° (ESE) 07:47:10 145.90 MHz
JAS-2 21 Oct 07:52:16 07:59:56 70° 287° (WNW) 08:07:42 435.800 - 435.900 CW/SSB, 435.910 FM
RS-15 21 Oct 08:00:45 08:11:08 41° 47° (NE) 08:21:50 29.354 - 29.394 USB, Beacon 29.352 USB
AO-7 21 Oct 08:22:46 08:28:07 19° 306° (NW) 08:33:28 29.400 - 29.500 MHz
SO-67 21 Oct 08:33:50 08:37:04 37° 98° (E) 08:40:17 435.3500 MHz FM
Saudisat 1A 21 Oct 08:40:19 08:43:35 21° 111° (ESE) 08:46:52 436.775 MHz
STRAND 1 21 Oct 09:08:29 09:11:59 19° 266° (W) 09:15:31 ?
JAS-2 21 Oct 09:40:18 09:43:40 14° 303° (WNW) 09:47:04 435.800 - 435.900 CW/SSB, 435.910 FM
HO-68 21 Oct 09:40:50 09:46:00 21° 93° (E) 09:51:08 435.675 MHz FM
PANSAT 21 Oct 10:02:44 10:04:52 14° 165° (SSE) 10:07:00 not established
SO-67 21 Oct 10:09:09 10:09:39 10° 293° (WNW) 10:10:09 435.3500 MHz FM
RS-15 21 Oct 10:13:00 10:23:53 59° 248° (WSW) 10:35:16 29.354 - 29.394 USB, Beacon 29.352 USB
Saudisat 1A 21 Oct 10:18:53 10:22:54 35° 306° (NW) 10:26:58 436.775 MHz
UKube-1 21 Oct 10:31:39 10:34:13 15° 93° (E) 10:36:46 145.840 MHz, 145.915 MHz
FUNcube-1 21 Oct 11:05:02 11:06:54 13° 91° (E) 11:08:46 145.950 - 145.970 MHz USB
Oscar 11 21 Oct 11:15:28 11:19:36 45° 99° (E) 11:23:43 145.825 FM, Beacon 2401.500 USB
HO-68 21 Oct 11:27:02 11:34:09 66° 289° (WNW) 11:41:14 435.675 MHz FM
PANSAT 21 Oct 11:41:25 11:44:27 23° 177° (S) 11:47:30 not established
ZACube-1 21 Oct 11:53:39 11:57:49 50° 99° (E) 12:01:53 437.345 MHz
UKube-1 21 Oct 12:06:27 12:10:33 41° 288° (WNW) 12:14:39 145.840 MHz, 145.915 MHz
MaSat-1 21 Oct 12:06:29 12:08:25 19° 253° (WSW) 12:10:15 437.345 MHz
FUNcube-1 21 Oct 12:39:27 12:43:33 45° 287° (WNW) 12:47:32 145.950 - 145.970 MHz USB
KITSAT 1 21 Oct 12:45:02 12:51:23 26° 105° (ESE) 12:57:45 435.175 FM
Oscar 11 21 Oct 12:53:05 12:55:22 14° 294° (WNW) 12:57:39 145.825 FM, Beacon 2401.500 USB
HO-68 21 Oct 13:18:40 13:20:29 11° 307° (NW) 13:22:18 435.675 MHz FM
PANSAT 21 Oct 13:21:19 13:24:05 19° 190° (S) 13:26:50 not established
SO-50 21 Oct 13:29:44 13:29:59 10° 106° (ESE) 13:30:13 436.795 FM
ZACube-1 21 Oct 13:31:53 13:33:44 13° 295° (WNW) 13:35:33 437.345 MHz
Sapphire 21 Oct 13:33:11 13:35:03 12° 43° (NE) 13:36:54 437.095 MHz 1200 baud AX-25 AFSK
Oscar 19 21 Oct 13:40:11 13:44:11 23° 67° (ENE) 13:48:10 437.125 CW, 437.150 USB
AO-27 21 Oct 13:50:49 13:52:39 12° 61° (ENE) 13:54:28 436.795 MHz FM
PCSat 21 Oct 13:54:46 13:58:31 19° 49° (NE) 14:02:15 145.825 MHz
JAS-1B 21 Oct 14:05:08 14:10:37 35° 69° (ENE) 14:15:43 435.800 - 435.900 CW/SSB
Oscar 16 21 Oct 14:23:56 14:29:02 64° 74° (ENE) 14:34:09 437.025 USB, Beacon 2401.1428
Oscar 10/S400 21 Oct 14:30:08 14:49:29 41° 153° (SSE) 15:10:17 145.825 - 145.975 CW/USB, Beacon 145.810 USB
ISS 21 Oct 14:33:18 14:36:29 44° 135° (SE) 14:39:41 145.800 FM
Uribyol 2 21 Oct 14:37:09 14:41:51 35° 70° (ENE) 14:46:34 436.500 FM
KITSAT 1 21 Oct 14:38:11 14:46:09 63° 302° (WNW) 14:54:11 435.175 FM
Gurwin Techsat 1B 21 Oct 14:41:15 14:44:51 19° 65° (ENE) 14:48:28 435.225 FM
ITAMSAT 1 21 Oct 14:42:09 14:46:53 37° 70° (ENE) 14:51:39 435.822 SSB
AO-Echo 21 Oct 14:49:35 14:54:15 53° 73° (ENE) 14:59:06 ?
TMSAT-1 21 Oct 14:55:00 14:58:34 19° 65° (ENE) 15:02:09 436.925 FM
SO-50 21 Oct 15:05:23 15:09:50 71° 302° (WNW) 15:14:26 436.795 FM
UOSAT-12 21 Oct 15:12:54 15:14:06 11° 106° (ESE) 15:15:17 437.025 FM, 437.400 FM
Sapphire 21 Oct 15:13:57 15:19:24 75° 62° (ENE) 15:24:48 437.095 MHz 1200 baud AX-25 AFSK
Oscar 19 21 Oct 15:18:29 15:23:16 38° 262° (W) 15:28:04 437.125 CW, 437.150 USB
AO-27 21 Oct 15:26:13 15:31:25 81° 257° (WSW) 15:36:40 436.795 MHz FM
AO-7 21 Oct 15:35:02 15:40:42 21° 55° (NE) 15:46:22 29.400 - 29.500 MHz
PCSat 21 Oct 15:37:01 15:42:23 63° 247° (WSW) 15:47:42 145.825 MHz
JAS-1B 21 Oct 15:56:05 16:01:20 28° 263° (W) 16:06:12 435.800 - 435.900 CW/SSB
Oscar 16 21 Oct 16:06:23 16:08:46 13° 269° (W) 16:11:11 437.025 USB, Beacon 2401.1428
ISS 21 Oct 16:10:43 16:13:19 21° 331° (NNW) 16:15:56 145.800 FM
Uribyol 2 21 Oct 16:17:07 16:21:20 25° 265° (W) 16:25:36 436.500 FM
Gurwin Techsat 1B 21 Oct 16:19:15 16:24:23 51° 260° (W) 16:29:34 435.225 FM
ITAMSAT 1 21 Oct 16:22:18 16:26:25 24° 265° (W) 16:30:35 435.822 SSB
AO-Echo 21 Oct 16:30:50 16:33:23 14° 269° (W) 16:35:58 ?
Uosat F 21 Oct 16:32:15 16:36:05 23° 66° (ENE) 16:39:56 435.120 FM
TMSAT-1 21 Oct 16:32:55 16:38:03 51° 260° (W) 16:43:13 436.925 FM
KITSAT 1 21 Oct 16:38:49 16:43:20 16° 325° (NW) 16:47:51 435.175 FM
UOSAT-12 21 Oct 16:48:58 16:53:34 71° 301° (WNW) 16:58:17 437.025 FM, 437.400 FM
Sapphire 21 Oct 16:59:58 17:02:05 12° 258° (WSW) 17:04:13 437.095 MHz 1200 baud AX-25 AFSK
Saudisat 1A 21 Oct 17:09:56 17:11:25 11° 43° (NE) 17:12:54 436.775 MHz
AO-7 21 Oct 17:24:13 17:32:30 84° 253° (WSW) 17:40:50 29.400 - 29.500 MHz
JAS-2 21 Oct 18:02:32 18:07:50 40° 68° (ENE) 18:13:46 435.800 - 435.900 CW/SSB, 435.910 FM
OPAL 21 Oct 18:03:27 18:06:32 16° 95° (E) 18:09:37 ?
Uosat F 21 Oct 18:09:58 18:14:36 38° 262° (W) 18:19:16 435.120 FM
Hamsat 21 Oct 18:29:47 18:33:44 40° 73° (ENE) 18:37:41 145.90 MHz
UOSAT-12 21 Oct 18:34:33 18:34:35 10° 320° (NW) 18:34:37 437.025 FM, 437.400 FM
Saudisat 1A 21 Oct 18:47:09 18:51:35 87° 241° (WSW) 18:56:00 436.775 MHz
